time, beta470, beta532, beta650
yyyy/mm/dd HH:MM:SS.fff, counts, counts, counts
2023/06/13 21:00:14.445, 122, 151, 89
2023/06/13 21:00:15.582, 124, 152, 92
2023/06/13 21:00:16.702, 139, 147, 96
2023/06/13 21:00:17.838, 119, 149, 89
2023/06/13 21:00:18.974, 124, 143, 90
2023/06/13 21:00:20.093, 123, 149, 90
2023/06/13 21:00:21.229, 119, 147, 86
2023/06/13 21:00:22.349, 119, 144, 95
2023/06/13 21:00:23.485, 120, 145, 95
2023/06/13 21:00:24.621, 128, 147, 90
2023/06/13 21:00:25.741, 127, 152, 89
2023/06/13 21:00:26.877, 120, 151, 92
2023/06/13 21:00:28.013, 119, 150, 91
2023/06/13 21:00:29.133, 122, 151, 92
2023/06/13 21:00:30.269, 120, 152, 89
2023/06/13 21:00:31.389, 117, 154, 89
2023/06/13 21:00:32.525, 118, 149, 87
2023/06/13 21:00:33.661, 118, 148, 91
2023/06/13 21:00:34.781, 122, 147, 96
2023/06/13 21:00:35.917, 120, 148, 92
2023/06/13 21:00:37.036, 124, 152, 88
2023/06/13 21:00:38.172, 121, 157, 92
2023/06/13 21:00:39.308, 122, 146, 92
2023/06/13 21:00:40.428, 123, 154, 96
2023/06/13 21:00:41.564, 122, 148, 89
2023/06/13 21:00:42.700, 218, 159, 100
2023/06/13 21:00:43.820, 208, 155, 93
2023/06/13 21:00:44.956, 166, 148, 88
2023/06/13 21:00:46.076, 122, 150, 91
2023/06/13 21:00:47.212, 124, 145, 98
2023/06/13 21:00:48.348, 124, 147, 97
2023/06/13 21:00:49.467, 135, 148, 93
2023/06/13 21:00:50.603, 126, 165, 91
2023/06/13 21:00:51.740, 140, 213, 89
2023/06/13 21:00:52.860, 139, 159, 90
2023/06/13 21:00:53.995, 127, 145, 87
2023/06/13 21:00:55.115, 123, 144, 85
2023/06/13 21:00:56.251, 124, 148, 92
2023/06/13 21:00:57.387, 123, 142, 89
2023/06/13 21:00:58.507, 123, 145, 87
2023/06/13 21:00:59.643, 123, 143, 89
2023/06/13 21:01:00.779, 121, 148, 88
2023/06/13 21:01:01.899, 120, 150, 91
2023/06/13 21:01:03.035, 119, 177, 89
2023/06/13 21:01:04.155, 119, 165, 89
2023/06/13 21:01:05.291, 136, 150, 91
2023/06/13 21:01:06.427, 121, 143, 89
2023/06/13 21:01:07.546, 122, 143, 86
2023/06/13 21:01:08.683, 120, 146, 89
2023/06/13 21:01:09.818, 118, 145, 90
2023/06/13 21:01:10.938, 123, 158, 106
2023/06/13 21:01:12.074, 115, 149, 123
2023/06/13 21:01:13.210, 121, 146, 100
2023/06/13 21:01:14.330, 120, 148, 92
2023/06/13 21:01:15.466, 121, 144, 88
2023/06/13 21:01:16.586, 122, 143, 89
2023/06/13 21:01:17.721, 119, 146, 89
2023/06/13 21:01:18.858, 121, 148, 90
2023/06/13 21:01:19.978, 119, 147, 90
2023/06/13 21:01:21.114, 122, 149, 93
2023/06/13 21:01:22.249, 120, 153, 93
2023/06/13 21:01:23.370, 123, 151, 89
2023/06/13 21:01:24.505, 127, 145, 91
2023/06/13 21:01:25.625, 125, 145, 88
2023/06/13 21:01:26.761, 130, 143, 88
2023/06/13 21:01:27.897, 157, 151, 91
2023/06/13 21:01:29.017, 168, 150, 90
2023/06/13 21:01:30.153, 166, 159, 88
2023/06/13 21:01:31.273, 170, 149, 87
2023/06/13 21:01:32.409, 184, 143, 90
2023/06/13 21:01:33.545, 188, 150, 88
2023/06/13 21:01:34.664, 149, 144, 89
2023/06/13 21:01:35.800, 148, 149, 90
2023/06/13 21:01:36.920, 179, 147, 85
2023/06/13 21:01:38.057, 112, 145, 85
2023/06/13 21:01:39.192, 114, 146, 85
2023/06/13 21:01:40.313, 115, 141, 86
2023/06/13 21:01:41.448, 115, 142, 89
2023/06/13 21:01:42.584, 116, 142, 89
2023/06/13 21:01:43.704, 118, 145, 92
2023/06/13 21:01:44.840, 116, 149, 90
2023/06/13 21:01:45.960, 119, 147, 94
2023/06/13 21:01:47.096, 117, 144, 89
2023/06/13 21:01:48.232, 119, 144, 93
2023/06/13 21:01:49.352, 120, 149, 87
2023/06/13 21:01:50.488, 115, 148, 87
2023/06/13 21:01:51.624, 111, 145, 91
2023/06/13 21:01:52.744, 113, 143, 93
2023/06/13 21:01:53.880, 111, 142, 89
2023/06/13 21:01:54.000, 113, 143, 91
2023/06/13 21:01:56.135, 118, 139, 87
2023/06/13 21:01:57.271, 112, 148, 91
2023/06/13 21:01:58.391, 114, 148, 89
2023/06/13 21:01:59.527, 125, 148, 86
2023/06/13 21:02:00.663, 117, 149, 91
2023/06/13 21:02:01.783, 118, 146, 95
2023/06/13 21:02:02.919, 112, 143, 94
2023/06/13 21:02:04.039, 114, 141, 87
2023/06/13 21:02:05.175, 115, 139, 91
2023/06/13 21:02:06.311, 114, 155, 88
2023/06/13 21:02:07.431, 116, 161, 97
2023/06/13 21:02:08.566, 113, 146, 103
2023/06/13 21:02:09.703, 110, 144, 88
2023/06/13 21:02:10.823, 111, 140, 86
2023/06/13 21:02:11.958, 113, 139, 90
2023/06/13 21:02:13.094, 114, 138, 89
2023/06/13 21:02:14.213, 115, 144, 84
2023/06/13 21:02:15.350, 115, 146, 91
2023/06/13 21:02:16.470, 111, 138, 90
2023/06/13 21:02:17.606, 114, 168, 91
2023/06/13 21:02:18.742, 114, 207, 87
2023/06/13 21:02:19.862, 115, 139, 178
2023/06/13 21:02:20.997, 114, 137, 92
2023/06/13 21:02:22.134, 119, 143, 88
2023/06/13 21:02:23.254, 116, 149, 87
2023/06/13 21:02:24.390, 112, 145, 88
2023/06/13 21:02:25.510, 115, 144, 89
2023/06/13 21:02:26.646, 116, 141, 91
2023/06/13 21:02:27.782, 117, 142, 89
2023/06/13 21:02:28.901, 116, 144, 88
2023/06/13 21:02:30.038, 109, 140, 88
2023/06/13 21:02:31.158, 107, 125, 87
2023/06/13 21:02:32.293, 114, 135, 88
2023/06/13 21:02:33.429, 110, 137, 90
2023/06/13 21:02:34.549, 107, 145, 88
2023/06/13 21:02:35.685, 111, 142, 99
2023/06/13 21:02:36.804, 116, 139, 90
2023/06/13 21:02:37.941, 107, 141, 90
2023/06/13 21:02:39.077, 125, 139, 89
2023/06/13 21:02:40.197, 115, 137, 91
2023/06/13 21:02:41.333, 112, 143, 89
2023/06/13 21:02:42.468, 113, 154, 90
2023/06/13 21:02:43.588, 109, 144, 92
2023/06/13 21:02:44.724, 110, 143, 85
2023/06/13 21:02:45.844, 116, 152, 88
2023/06/13 21:02:46.980, 113, 142, 88
2023/06/13 21:02:48.116, 111, 143, 86
2023/06/13 21:02:49.235, 108, 147, 87
2023/06/13 21:02:50.371, 104, 139, 86
2023/06/13 21:02:51.508, 104, 128, 85
2023/06/13 21:02:52.628, 108, 129, 85
2023/06/13 21:02:53.763, 107, 138, 107
2023/06/13 21:02:54.899, 112, 139, 86
2023/06/13 21:02:56.020, 110, 138, 85
2023/06/13 21:02:57.156, 111, 141, 87
2023/06/13 21:02:58.276, 113, 140, 97
2023/06/13 21:02:59.411, 109, 148, 88
2023/06/13 21:03:00.548, 107, 143, 90
2023/06/13 21:03:01.667, 107, 163, 84
2023/06/13 21:03:02.803, 107, 145, 85
2023/06/13 21:03:03.938, 110, 140, 88
2023/06/13 21:03:05.059, 110, 139, 86
2023/06/13 21:03:06.195, 105, 139, 84
2023/06/13 21:03:07.315, 108, 141, 85
2023/06/13 21:03:08.450, 107, 132, 87
2023/06/13 21:03:09.587, 108, 130, 88
2023/06/13 21:03:10.706, 109, 133, 90
2023/06/13 21:03:11.843, 107, 132, 90
2023/06/13 21:03:12.962, 106, 134, 88
2023/06/13 21:03:14.099, 109, 142, 86
2023/06/13 21:03:15.234, 111, 140, 87
2023/06/13 21:03:16.354, 104, 140, 89
2023/06/13 21:03:17.490, 106, 132, 231
2023/06/13 21:03:18.626, 112, 135, 152
2023/06/13 21:03:19.746, 113, 136, 84
2023/06/13 21:03:20.882, 117, 135, 88
2023/06/13 21:03:22.018, 106, 140, 87
2023/06/13 21:03:23.138, 112, 127, 84
2023/06/13 21:03:24.274, 108, 126, 85
2023/06/13 21:03:25.394, 107, 134, 86
2023/06/13 21:03:26.530, 108, 217, 87
2023/06/13 21:03:27.666, 111, 240, 85
2023/06/13 21:03:28.786, 110, 235, 87
2023/06/13 21:03:29.921, 113, 148, 84
2023/06/13 21:03:31.041, 110, 149, 84
2023/06/13 21:03:32.177, 111, 140, 90
2023/06/13 21:03:33.313, 106, 136, 89
2023/06/13 21:03:34.433, 107, 142, 105
2023/06/13 21:03:35.569, 103, 143, 87
2023/06/13 21:03:36.705, 104, 130, 85
2023/06/13 21:03:37.825, 105, 128, 83
2023/06/13 21:03:38.960, 109, 129, 88
2023/06/13 21:03:40.081, 111, 129, 89
2023/06/13 21:03:41.217, 108, 133, 84
2023/06/13 21:03:42.353, 110, 144, 83
2023/06/13 21:03:43.473, 110, 140, 79
2023/06/13 21:03:44.608, 112, 144, 82
2023/06/13 21:03:45.744, 106, 127, 83
2023/06/13 21:03:46.864, 101, 123, 83
2023/06/13 21:03:48.000, 102, 122, 81
2023/06/13 21:03:49.120, 102, 136, 83
2023/06/13 21:03:50.256, 106, 123, 84
2023/06/13 21:03:51.392, 109, 128, 81
2023/06/13 21:03:52.511, 110, 128, 84
2023/06/13 21:03:53.648, 102, 130, 85
2023/06/13 21:03:54.784, 107, 128, 82
2023/06/13 21:03:55.903, 109, 123, 80
2023/06/13 21:03:57.039, 108, 137, 85
2023/06/13 21:03:58.160, 105, 134, 80
2023/06/13 21:03:59.295, 105, 135, 82
2023/06/13 21:04:00.432, 108, 126, 85
2023/06/13 21:04:01.551, 103, 126, 83
2023/06/13 21:04:02.687, 104, 126, 82
2023/06/13 21:04:03.824, 101, 125, 89
2023/06/13 21:04:04.943, 101, 126, 82
2023/06/13 21:04:06.079, 108, 124, 81
2023/06/13 21:04:07.199, 108, 125, 85
2023/06/13 21:04:08.335, 104, 127, 80
2023/06/13 21:04:09.471, 105, 129, 82
2023/06/13 21:04:10.590, 104, 131, 83
2023/06/13 21:04:11.727, 105, 122, 79
2023/06/13 21:04:12.863, 105, 128, 84
2023/06/13 21:04:13.983, 107, 140, 81
2023/06/13 21:04:15.118, 107, 148, 81
2023/06/13 21:04:16.238, 107, 135, 83
2023/06/13 21:04:17.374, 107, 133, 83
2023/06/13 21:04:18.510, 105, 126, 80
2023/06/13 21:04:19.630, 105, 128, 85
2023/06/13 21:04:20.766, 103, 121, 83
2023/06/13 21:04:21.902, 102, 122, 82
2023/06/13 21:04:23.022, 100, 129, 82
2023/06/13 21:04:24.157, 105, 124, 79
2023/06/13 21:04:25.278, 106, 118, 83
2023/06/13 21:04:26.414, 108, 120, 80
2023/06/13 21:04:27.550, 107, 127, 83
2023/06/13 21:04:28.669, 109, 129, 80
2023/06/13 21:04:29.806, 109, 125, 80
2023/06/13 21:04:30.926, 103, 128, 82
2023/06/13 21:04:32.062, 99, 127, 79
2023/06/13 21:04:33.197, 101, 123, 80
2023/06/13 21:04:34.317, 101, 123, 81
2023/06/13 21:04:35.452, 105, 125, 79
2023/06/13 21:04:36.573, 102, 126, 78
2023/06/13 21:04:37.709, 109, 130, 76
2023/06/13 21:04:38.845, 104, 126, 81
2023/06/13 21:04:39.964, 102, 129, 77
2023/06/13 21:04:41.101, 102, 121, 81
2023/06/13 21:04:42.237, 105, 120, 76
2023/06/13 21:04:43.357, 102, 119, 78
2023/06/13 21:04:44.493, 107, 118, 80
2023/06/13 21:04:45.613, 103, 119, 84
2023/06/13 21:04:46.749, 101, 121, 75
2023/06/13 21:04:47.885, 105, 119, 80
2023/06/13 21:04:49.005, 99, 121, 78
2023/06/13 21:04:50.140, 101, 124, 78
2023/06/13 21:04:51.260, 102, 120, 78
2023/06/13 21:04:52.396, 104, 118, 81
2023/06/13 21:04:53.532, 103, 116, 79
2023/06/13 21:04:54.652, 97, 124, 79
2023/06/13 21:04:55.788, 96, 116, 90
2023/06/13 21:04:56.924, 101, 112, 88
2023/06/13 21:04:58.044, 105, 116, 77
2023/06/13 21:04:59.180, 100, 114, 78
2023/06/13 21:05:00.300, 99, 122, 79
2023/06/13 21:05:01.436, 99, 125, 95
2023/06/13 21:05:02.572, 102, 122, 97
2023/06/13 21:05:03.691, 105, 125, 78
2023/06/13 21:05:04.827, 106, 126, 78
2023/06/13 21:05:05.948, 102, 124, 105
2023/06/13 21:05:07.083, 101, 129, 173
2023/06/13 21:05:08.219, 99, 125, 81
2023/06/13 21:05:09.339, 98, 136, 78
2023/06/13 21:05:10.475, 104, 130, 76
2023/06/13 21:05:11.611, 107, 122, 78
2023/06/13 21:05:12.731, 109, 128, 77
2023/06/13 21:05:13.867, 105, 125, 81
2023/06/13 21:05:14.987, 103, 119, 78
2023/06/13 21:05:16.122, 102, 119, 81
2023/06/13 21:05:17.258, 97, 116, 79
2023/06/13 21:05:18.379, 102, 118, 78
2023/06/13 21:05:19.514, 102, 121, 76
2023/06/13 21:05:20.635, 102, 123, 77
2023/06/13 21:05:21.770, 110, 118, 76
2023/06/13 21:05:22.906, 100, 118, 79
2023/06/13 21:05:24.026, 101, 120, 81
2023/06/13 21:05:25.162, 97, 122, 77
2023/06/13 21:05:26.282, 99, 126, 81
2023/06/13 21:05:27.418, 104, 125, 77
2023/06/13 21:05:28.554, 104, 122, 77
2023/06/13 21:05:29.674, 102, 121, 75
2023/06/13 21:05:30.810, 102, 123, 73
2023/06/13 21:05:31.930, 101, 123, 76
2023/06/13 21:05:33.066, 97, 124, 78
2023/06/13 21:05:34.201, 102, 124, 81
2023/06/13 21:05:35.321, 99, 124, 75
2023/06/13 21:05:36.457, 98, 119, 116
2023/06/13 21:05:37.577, 98, 120, 80
2023/06/13 21:05:38.713, 97, 119, 75
2023/06/13 21:05:39.849, 98, 118, 78
2023/06/13 21:05:40.968, 102, 116, 76
2023/06/13 21:05:42.105, 97, 117, 72
2023/06/13 21:05:43.225, 98, 117, 77
2023/06/13 21:05:44.361, 99, 117, 78
2023/06/13 21:05:45.481, 98, 122, 76
2023/06/13 21:05:46.617, 100, 120, 75
2023/06/13 21:05:47.753, 99, 119, 77
2023/06/13 21:05:48.872, 99, 120, 74
2023/06/13 21:05:50.009, 99, 122, 74
2023/06/13 21:05:51.128, 98, 122, 76
2023/06/13 21:05:52.264, 98, 117, 78
2023/06/13 21:05:53.400, 100, 118, 73
2023/06/13 21:05:54.520, 110, 122, 79
2023/06/13 21:05:55.656, 101, 118, 81
2023/06/13 21:05:56.776, 101, 119, 78
2023/06/13 21:05:57.912, 96, 120, 78
2023/06/13 21:05:59.048, 99, 119, 77
2023/06/13 21:06:00.168, 98, 119, 76
2023/06/13 21:06:01.304, 97, 118, 77
2023/06/13 21:06:02.424, 100, 116, 79
2023/06/13 21:06:03.560, 99, 112, 74
2023/06/13 21:06:04.696, 98, 113, 74
2023/06/13 21:06:05.816, 99, 112, 73
2023/06/13 21:06:06.951, 99, 126, 76
2023/06/13 21:06:08.071, 97, 113, 74
2023/06/13 21:06:09.207, 102, 119, 74
2023/06/13 21:06:10.327, 101, 117, 73
2023/06/13 21:06:11.463, 101, 118, 74
2023/06/13 21:06:12.599, 94, 119, 76
2023/06/13 21:06:13.719, 98, 116, 75
2023/06/13 21:06:14.855, 97, 117, 71
2023/06/13 21:06:15.975, 101, 120, 72
2023/06/13 21:06:17.111, 100, 120, 74
2023/06/13 21:06:18.247, 98, 123, 74
2023/06/13 21:06:19.367, 97, 119, 71
2023/06/13 21:06:20.503, 111, 117, 75
2023/06/13 21:06:21.623, 99, 114, 116
2023/06/13 21:06:22.758, 99, 115, 106
2023/06/13 21:06:23.894, 96, 113, 74
2023/06/13 21:06:25.014, 94, 113, 83
2023/06/13 21:06:26.150, 92, 111, 81
2023/06/13 21:06:27.270, 95, 110, 72
2023/06/13 21:06:28.405, 95, 113, 74
2023/06/13 21:06:29.526, 94, 116, 74
2023/06/13 21:06:30.662, 94, 118, 73
2023/06/13 21:06:31.797, 96, 113, 75
2023/06/13 21:06:32.918, 96, 116, 77
2023/06/13 21:06:34.054, 93, 119, 74
2023/06/13 21:06:35.174, 95, 113, 76
2023/06/13 21:06:36.310, 95, 113, 78
2023/06/13 21:06:37.430, 96, 122, 84
2023/06/13 21:06:38.565, 94, 115, 75
2023/06/13 21:06:39.701, 96, 112, 73
2023/06/13 21:06:40.821, 94, 111, 74
2023/06/13 21:06:41.957, 98, 111, 76
2023/06/13 21:06:43.077, 95, 109, 75
2023/06/13 21:06:44.213, 95, 112, 74
2023/06/13 21:06:45.333, 95, 113, 74
2023/06/13 21:06:46.469, 98, 111, 73
2023/06/13 21:06:47.605, 98, 113, 72
2023/06/13 21:06:48.725, 99, 114, 74
2023/06/13 21:06:49.861, 99, 112, 136
2023/06/13 21:06:50.981, 100, 119, 156
2023/06/13 21:06:52.116, 100, 113, 80
2023/06/13 21:06:53.252, 97, 121, 73
2023/06/13 21:06:54.372, 99, 121, 74
2023/06/13 21:06:55.508, 94, 128, 73
2023/06/13 21:06:56.628, 93, 114, 73
2023/06/13 21:06:57.764, 93, 115, 76
2023/06/13 21:06:58.900, 95, 114, 78
2023/06/13 21:07:00.020, 101, 119, 73
2023/06/13 21:07:01.156, 102, 166, 73
2023/06/13 21:07:02.276, 98, 116, 73
2023/06/13 21:07:03.412, 94, 115, 75
2023/06/13 21:07:04.531, 98, 114, 73
2023/06/13 21:07:05.668, 96, 114, 77
2023/06/13 21:07:06.804, 95, 114, 75
2023/06/13 21:07:07.924, 96, 115, 74
2023/06/13 21:07:09.059, 94, 114, 77
2023/06/13 21:07:10.179, 93, 110, 74
2023/06/13 21:07:11.315, 93, 112, 74
2023/06/13 21:07:12.435, 95, 111, 73
2023/06/13 21:07:13.571, 97, 110, 75
2023/06/13 21:07:14.707, 98, 112, 73
2023/06/13 21:07:15.827, 95, 111, 75
2023/06/13 21:07:16.963, 97, 105, 75
2023/06/13 21:07:18.083, 99, 108, 72
2023/06/13 21:07:19.219, 94, 107, 72
2023/06/13 21:07:20.355, 92, 107, 71
2023/06/13 21:07:21.475, 95, 106, 73
2023/06/13 21:07:22.610, 96, 107, 74
2023/06/13 21:07:23.731, 114, 111, 74
2023/06/13 21:07:24.866, 98, 111, 90
2023/06/13 21:07:25.987, 93, 110, 90
2023/06/13 21:07:27.122, 93, 108, 72
2023/06/13 21:07:28.258, 94, 109, 71
2023/06/13 21:07:29.379, 93, 112, 71
2023/06/13 21:07:30.514, 97, 114, 72
2023/06/13 21:07:31.633, 91, 112, 76
2023/06/13 21:07:32.770, 87, 114, 79
2023/06/13 21:07:33.890, 94, 208, 83
2023/06/13 21:07:35.026, 95, 163, 83
2023/06/13 21:07:36.145, 96, 107, 74
2023/06/13 21:07:37.282, 108, 106, 71
2023/06/13 21:07:38.418, 95, 106, 72
2023/06/13 21:07:39.537, 95, 108, 69
2023/06/13 21:07:40.673, 99, 105, 72
2023/06/13 21:07:41.794, 97, 105, 72
2023/06/13 21:07:42.930, 98, 109, 73
2023/06/13 21:07:44.049, 93, 109, 75
2023/06/13 21:07:45.185, 95, 107, 70
2023/06/13 21:07:46.321, 95, 112, 76
2023/06/13 21:07:47.441, 97, 109, 73
2023/06/13 21:07:48.577, 93, 105, 75
2023/06/13 21:07:49.696, 94, 109, 71
2023/06/13 21:07:50.833, 92, 108, 72
2023/06/13 21:07:51.968, 93, 109, 77
2023/06/13 21:07:53.089, 92, 103, 68
2023/06/13 21:07:54.224, 92, 106, 68
2023/06/13 21:07:55.345, 89, 107, 72
2023/06/13 21:07:56.481, 93, 107, 72
2023/06/13 21:07:57.600, 90, 111, 72
2023/06/13 21:07:58.736, 92, 104, 74
2023/06/13 21:07:59.872, 94, 108, 70
2023/06/13 21:08:00.992, 92, 105, 69
2023/06/13 21:08:02.128, 94, 105, 74
2023/06/13 21:08:03.247, 94, 112, 72
2023/06/13 21:08:04.384, 95, 109, 70
2023/06/13 21:08:05.504, 98, 108, 76
2023/06/13 21:08:06.640, 96, 112, 185
2023/06/13 21:08:07.775, 94, 110, 523
2023/06/13 21:08:08.896, 93, 122, 199
2023/06/13 21:08:10.032, 94, 113, 86
2023/06/13 21:08:11.152, 93, 107, 71
2023/06/13 21:08:12.288, 90, 104, 70
2023/06/13 21:08:13.423, 94, 102, 72
2023/06/13 21:08:14.543, 92, 111, 73
2023/06/13 21:08:15.679, 91, 214, 69
2023/06/13 21:08:16.799, 96, 103, 70
2023/06/13 21:08:17.935, 101, 104, 71
2023/06/13 21:08:19.055, 99, 108, 71
2023/06/13 21:08:20.191, 95, 107, 69
2023/06/13 21:08:21.327, 89, 109, 73
2023/06/13 21:08:22.447, 94, 105, 70
2023/06/13 21:08:23.583, 96, 109, 71
2023/06/13 21:08:24.703, 92, 106, 70
2023/06/13 21:08:25.839, 89, 106, 69
2023/06/13 21:08:26.959, 92, 106, 69
2023/06/13 21:08:28.095, 92, 113, 73
2023/06/13 21:08:29.230, 91, 114, 79
2023/06/13 21:08:30.350, 92, 106, 76
2023/06/13 21:08:31.486, 95, 108, 74
2023/06/13 21:08:32.606, 94, 107, 74
2023/06/13 21:08:33.742, 94, 104, 71
2023/06/13 21:08:34.862, 90, 102, 69
2023/06/13 21:08:35.997, 93, 105, 68
2023/06/13 21:08:37.118, 94, 105, 70
2023/06/13 21:08:38.254, 94, 105, 70
2023/06/13 21:08:39.390, 93, 102, 67
2023/06/13 21:08:40.510, 92, 101, 73
2023/06/13 21:08:41.646, 91, 105, 69
2023/06/13 21:08:42.766, 91, 106, 69
2023/06/13 21:08:43.901, 95, 102, 69
2023/06/13 21:08:45.037, 92, 106, 70
2023/06/13 21:08:46.157, 92, 101, 70
2023/06/13 21:08:47.293, 96, 112, 70
2023/06/13 21:08:48.413, 95, 106, 71
2023/06/13 21:08:49.549, 94, 105, 71
2023/06/13 21:08:50.669, 94, 107, 71
2023/06/13 21:08:51.805, 93, 105, 69
2023/06/13 21:08:52.941, 90, 104, 69
2023/06/13 21:08:54.061, 88, 104, 71
2023/06/13 21:08:55.196, 91, 101, 74
2023/06/13 21:08:56.316, 88, 103, 88
2023/06/13 21:08:57.453, 88, 102, 72
2023/06/13 21:08:58.573, 91, 105, 71
2023/06/13 21:08:59.709, 93, 103, 72
2023/06/13 21:09:00.844, 90, 104, 73
2023/06/13 21:09:01.964, 94, 103, 95
2023/06/13 21:09:03.100, 91, 99, 70
2023/06/13 21:09:04.220, 89, 100, 67
2023/06/13 21:09:05.356, 91, 105, 68
2023/06/13 21:09:06.476, 92, 117, 66
2023/06/13 21:09:07.612, 91, 107, 68
2023/06/13 21:09:08.732, 87, 102, 73
2023/06/13 21:09:09.868, 90, 103, 80
2023/06/13 21:09:11.004, 90, 106, 72
2023/06/13 21:09:12.124, 90, 101, 67
2023/06/13 21:09:13.260, 87, 101, 66
2023/06/13 21:09:14.380, 90, 98, 67
2023/06/13 21:09:15.516, 90, 100, 69
2023/06/13 21:09:16.635, 92, 104, 68
2023/06/13 21:09:17.771, 95, 97, 69
2023/06/13 21:09:18.907, 92, 101, 67
2023/06/13 21:09:20.027, 93, 102, 71
2023/06/13 21:09:21.163, 91, 104, 68
2023/06/13 21:09:22.283, 93, 105, 69
2023/06/13 21:09:23.419, 93, 123, 67
2023/06/13 21:09:24.539, 92, 117, 67
2023/06/13 21:09:25.674, 90, 132, 70
2023/06/13 21:09:26.794, 91, 105, 66
2023/06/13 21:09:27.930, 91, 101, 70
2023/06/13 21:09:29.066, 93, 100, 69
2023/06/13 21:09:30.186, 93, 100, 68
2023/06/13 21:09:31.322, 90, 101, 67
2023/06/13 21:09:32.442, 92, 102, 71
2023/06/13 21:09:33.578, 90, 101, 66
2023/06/13 21:09:34.698, 88, 101, 68
2023/06/13 21:09:35.834, 89, 103, 67
2023/06/13 21:09:36.970, 90, 104, 65
2023/06/13 21:09:38.090, 90, 102, 70
2023/06/13 21:09:39.226, 91, 99, 69
2023/06/13 21:09:40.345, 90, 100, 69
2023/06/13 21:09:41.482, 88, 101, 68
2023/06/13 21:09:42.602, 89, 99, 65
2023/06/13 21:09:43.738, 89, 102, 67
2023/06/13 21:09:44.858, 92, 98, 68
2023/06/13 21:09:45.994, 92, 103, 67
2023/06/13 21:09:47.129, 88, 105, 67
2023/06/13 21:09:48.249, 88, 101, 66
2023/06/13 21:09:49.385, 89, 99, 70
2023/06/13 21:09:50.505, 91, 98, 65
2023/06/13 21:09:51.641, 90, 101, 67
2023/06/13 21:09:52.761, 90, 129, 69
2023/06/13 21:09:53.897, 88, 105, 67
2023/06/13 21:09:55.017, 91, 97, 64
2023/06/13 21:09:56.153, 87, 100, 67
2023/06/13 21:09:57.289, 87, 101, 66
2023/06/13 21:09:58.409, 91, 99, 68
2023/06/13 21:09:59.544, 88, 98, 67
2023/06/13 21:10:00.665, 87, 99, 104
2023/06/13 21:10:01.801, 88, 97, 134
2023/06/13 21:10:02.920, 85, 99, 66
2023/06/13 21:10:04.055, 88, 97, 69
2023/06/13 21:10:05.176, 91, 95, 64
2023/06/13 21:10:06.312, 88, 96, 67
2023/06/13 21:10:07.432, 88, 97, 66
2023/06/13 21:10:08.567, 90, 99, 65
2023/06/13 21:10:09.688, 89, 102, 63
2023/06/13 21:10:10.824, 91, 101, 66
2023/06/13 21:10:11.960, 92, 97, 70
2023/06/13 21:10:13.079, 89, 100, 69
2023/06/13 21:10:14.216, 90, 100, 68
2023/06/13 21:10:15.336, 88, 100, 65
2023/06/13 21:10:16.472, 88, 99, 69
2023/06/13 21:10:17.591, 89, 98, 68
2023/06/13 21:10:18.727, 89, 99, 70
2023/06/13 21:10:19.847, 89, 102, 68
2023/06/13 21:10:20.983, 92, 100, 69
2023/06/13 21:10:22.119, 92, 100, 68
2023/06/13 21:10:23.239, 90, 101, 69
2023/06/13 21:10:24.375, 90, 100, 68
2023/06/13 21:10:25.495, 88, 103, 69
2023/06/13 21:10:26.631, 89, 103, 66
2023/06/13 21:10:27.751, 88, 103, 67
2023/06/13 21:10:28.887, 97, 102, 67
2023/06/13 21:10:30.007, 91, 104, 68
2023/06/13 21:10:31.142, 90, 105, 65
2023/06/13 21:10:32.279, 90, 100, 67
2023/06/13 21:10:33.399, 90, 102, 66
2023/06/13 21:10:34.534, 92, 96, 70
2023/06/13 21:10:35.654, 86, 99, 68
2023/06/13 21:10:36.790, 91, 97, 69
2023/06/13 21:10:37.910, 87, 96, 70
2023/06/13 21:10:39.046, 90, 98, 65
2023/06/13 21:10:40.166, 88, 98, 63
2023/06/13 21:10:41.302, 87, 98, 64
2023/06/13 21:10:42.422, 88, 102, 66
2023/06/13 21:10:43.558, 88, 96, 64
2023/06/13 21:10:44.677, 90, 94, 67
2023/06/13 21:10:45.814, 89, 99, 65
2023/06/13 21:10:46.934, 88, 95, 65
2023/06/13 21:10:48.070, 89, 95, 66
2023/06/13 21:10:49.189, 89, 98, 67
2023/06/13 21:10:50.326, 88, 99, 67
2023/06/13 21:10:51.461, 88, 96, 64
2023/06/13 21:10:52.581, 86, 98, 75
2023/06/13 21:10:53.717, 88, 96, 70
2023/06/13 21:10:54.837, 88, 102, 68
2023/06/13 21:10:55.973, 99, 99, 67
2023/06/13 21:10:57.093, 89, 100, 65
2023/06/13 21:10:58.228, 86, 99, 68
2023/06/13 21:10:59.349, 87, 97, 81
2023/06/13 21:11:00.485, 89, 97, 78
2023/06/13 21:11:01.604, 91, 99, 62
2023/06/13 21:11:02.741, 88, 100, 67
2023/06/13 21:11:03.860, 90, 99, 67
2023/06/13 21:11:04.996, 92, 97, 67
2023/06/13 21:11:06.116, 87, 100, 66
2023/06/13 21:11:07.252, 90, 100, 64
2023/06/13 21:11:08.388, 87, 94, 65
2023/06/13 21:11:09.508, 86, 99, 64
2023/06/13 21:11:10.644, 88, 100, 65
2023/06/13 21:11:11.764, 90, 103, 63
2023/06/13 21:11:12.900, 90, 101, 66
2023/06/13 21:11:14.020, 91, 99, 67
2023/06/13 21:11:15.156, 88, 97, 65
2023/06/13 21:11:16.276, 88, 101, 69
2023/06/13 21:11:17.412, 88, 101, 63
2023/06/13 21:11:18.548, 90, 96, 67
2023/06/13 21:11:19.667, 88, 98, 64
2023/06/13 21:11:20.804, 89, 99, 65
2023/06/13 21:11:21.923, 88, 97, 67
2023/06/13 21:11:23.059, 88, 99, 66
2023/06/13 21:11:24.179, 90, 98, 65
2023/06/13 21:11:25.315, 89, 97, 63
2023/06/13 21:11:26.435, 89, 96, 70
2023/06/13 21:11:27.571, 90, 97, 66
2023/06/13 21:11:28.691, 89, 94, 65
2023/06/13 21:11:29.826, 90, 98, 67
2023/06/13 21:11:30.947, 88, 96, 73
2023/06/13 21:11:32.083, 90, 99, 65
2023/06/13 21:11:33.203, 90, 97, 63
2023/06/13 21:11:34.338, 89, 98, 67
2023/06/13 21:11:35.459, 86, 100, 66
2023/06/13 21:11:36.595, 87, 98, 68
2023/06/13 21:11:37.714, 87, 97, 68
2023/06/13 21:11:38.850, 86, 95, 67
2023/06/13 21:11:39.970, 91, 96, 63
2023/06/13 21:11:41.106, 89, 97, 65
2023/06/13 21:11:42.226, 83, 94, 63
2023/06/13 21:11:43.362, 88, 94, 66
2023/06/13 21:11:44.482, 85, 94, 65
2023/06/13 21:11:45.618, 85, 99, 67
2023/06/13 21:11:46.754, 85, 100, 66
2023/06/13 21:11:47.873, 89, 99, 65
2023/06/13 21:11:49.010, 86, 96, 65
2023/06/13 21:11:50.130, 86, 97, 63
2023/06/13 21:11:51.265, 90, 95, 67
2023/06/13 21:11:52.386, 89, 96, 66
2023/06/13 21:11:53.522, 88, 98, 63
2023/06/13 21:11:54.641, 85, 98, 65
2023/06/13 21:11:55.777, 84, 95, 64
2023/06/13 21:11:56.897, 87, 96, 66